星链-30182 (STARLINK-30182 )

导读 | 星芒AI

STARLINK-30182 是 SpaceX Starlink 卫星互联网项目中的一颗低轨卫星,属于第 14 批组网发射的“星链”卫星之一。该卫星于 2022 年 11 月 18 日由猎鹰 9 号火箭从美国卡纳维拉尔角发射升空,旨在为全球用户提供高速、低延迟的宽带互联网服务。STARLINK-30182 运行在约 550 公里的轨道高度,采用可变推力推进系统,具备自主避碰能力,有助于降低太空碎片风险。该卫星是 SpaceX 构建全球卫星互联网网络的重要组成部分。

基本信息
目录编号:
57412
目录名称:
STARLINK-30182
国际标识:
2023-102J
轨道中心:
EARTH
卫星名称:
星链-30182
卫星全名:
星链-30182 (STARLINK-30182 )
卫星状态:
在轨 (已飞行882 天)
发射日期:
2023-07-20 UTC
国别 :
美国 (US)
星等 :
--
轨道信息
数据来源 国际轨道数据
星历时间: 2025-12-18T08:46:34+0800
20小时前
查看轨道信息
半长轴: 6937.197km
偏心率: 0.0001146
轨道倾角: 43.006°
近地点辐角 280.125°
升交点赤经 332.520°
平近点角 79.947°
近地点: 558.266km
远地点: 559.858km
周期: 95.838分钟
每日圈数: 15.025426
详细信息
固有亮度:
5
最大亮度:
0.3
卫星平台:
Starlink v2.0 mini
覆盖范围:
全球
运营商:
太空探索技术公司
运营商所在国:
美国
制造商(研发单位):
太空探索技术公司
制造商所在国:
美国
使用方式:
暂无
卫星简介
星链(Starlink)计划是由太空探索技术公司(SpaceX)提出的一个巨型低轨卫星互联网星座项目,计划在2019年至2024年间在太空搭建由约1.2万颗卫星组成的“星链”网络,其中1584颗将部署在地球上空550千米处的近地轨道,并从2020年开始工作。该卫星仍在工作。
2D轨道图
3D轨道图
轨道高度分析图
轨道倾角分析图
轨道综合分析图
查看轨道综合分析图